Location: Haulchin
(50.3172°N, 3.4360°E)
Time: 19:38:41
(UTC+00:00)

Cosmos 1908 - Pass Details

Date: 23 May 2024
Orbit: 466 x 481 km, 82.5° (Epoch: 14 June)

Event Time Altitude Azimuth Distance (km) Brightness Sun altitude
Rises 00:11:08 0° 341° (NNW) 2,517 7.8 -18.8°
Reaches altitude 10° 00:13:22 10° 331° (NNW) 1,635 6.5 -18.7°
Maximum altitude 00:16:32 30° 268° (W) 861 4.2 -18.7°
Enters shadow 00:16:54 30° 256° (WSW) 876 4.1 -18.7°
